TimePDT,TemperatureF,Dew PointF,Humidity,Sea Level PressureIn,VisibilityMPH,Wind Direction,Wind SpeedMPH,Gust SpeedMPH,PrecipitationIn,Events,Conditions,WindDirDegrees,DateUTC
12:56 AM,45.0,33.1,63,30.25,10.0,Calm,Calm,-,N/A,,Overcast,0,2013-03-12 07:56:00
1:56 AM,44.1,34.0,68,30.23,10.0,ESE,4.6,-,0.00,Rain,Light Rain,110,2013-03-12 08:56:00
2:56 AM,44.1,35.1,71,30.21,10.0,Calm,Calm,-,0.00,Rain,Light Rain,0,2013-03-12 09:56:00
3:56 AM,43.0,36.0,76,30.20,10.0,ENE,5.8,-,0.00,Rain,Light Rain,70,2013-03-12 10:56:00
4:56 AM,42.1,37.9,85,30.20,10.0,Calm,Calm,-,0.01,,Overcast,0,2013-03-12 11:56:00
5:56 AM,42.1,37.0,82,30.19,10.0,SSE,3.5,-,N/A,,Overcast,150,2013-03-12 12:56:00
6:56 AM,42.1,37.0,82,30.19,10.0,Calm,Calm,-,N/A,,Overcast,0,2013-03-12 13:56:00
7:56 AM,43.0,37.0,80,30.18,10.0,East,4.6,-,N/A,,Overcast,80,2013-03-12 14:56:00
8:56 AM,44.1,37.9,79,30.18,10.0,NE,4.6,-,N/A,,Overcast,50,2013-03-12 15:56:00
9:56 AM,46.0,39.0,76,30.18,10.0,Calm,Calm,-,N/A,,Overcast,0,2013-03-12 16:56:00
10:56 AM,46.9,39.9,77,30.17,10.0,East,4.6,-,N/A,,Overcast,80,2013-03-12 17:56:00
11:56 AM,50.0,41.0,71,30.16,10.0,North,4.6,-,N/A,,Overcast,360,2013-03-12 18:56:00
12:56 PM,51.1,42.1,71,30.14,10.0,North,3.5,-,N/A,,Scattered Clouds,350,2013-03-12 19:56:00
1:56 PM,55.9,43.0,62,30.11,10.0,North,6.9,-,N/A,,Clear,10,2013-03-12 20:56:00
2:56 PM,57.9,43.0,58,30.10,10.0,NNE,5.8,-,N/A,,Overcast,30,2013-03-12 21:56:00
3:56 PM,59.0,44.1,58,30.11,10.0,Calm,Calm,-,N/A,,Mostly Cloudy,0,2013-03-12 22:56:00
4:56 PM,60.1,44.1,55,30.10,10.0,Calm,Calm,-,N/A,,Overcast,0,2013-03-12 23:56:00
5:56 PM,60.1,44.1,55,30.11,10.0,East,3.5,-,N/A,,Mostly Cloudy,100,2013-03-13 00:56:00
6:56 PM,57.0,44.1,62,30.12,10.0,ENE,4.6,-,N/A,,Overcast,70,2013-03-13 01:56:00
7:56 PM,55.9,44.1,64,30.11,10.0,Calm,Calm,-,N/A,,Overcast,0,2013-03-13 02:56:00
8:56 PM,53.1,44.1,71,30.13,10.0,ESE,4.6,-,N/A,,Overcast,110,2013-03-13 03:56:00
9:56 PM,53.1,44.1,71,30.14,10.0,ESE,5.8,-,N/A,,Overcast,120,2013-03-13 04:56:00
10:56 PM,53.1,43.0,69,30.14,10.0,East,4.6,-,N/A,,Overcast,100,2013-03-13 05:56:00
11:56 PM,51.1,43.0,74,30.15,10.0,East,4.6,-,N/A,,Mostly Cloudy,90,2013-03-13 06:56:00